Weather History for KJSV - December, 2012

Change the Weather History Date:

Friday, December 21, 2012

  Actual Average Record
Temperature  
Mean Temperature 40 °F -  
Max Temperature 57 °F 50 °F 136 °F (2004)
Min Temperature 24 °F 27 °F 8 °F (1989)
Degree Days  
Heating Degree Days 24    
Moisture  
Dew Point 20 °F    
Average Humidity 51    
Maximum Humidity 80    
Minimum Humidity 20    
Precipitation  
Precipitation 0.00 in - - ()
Sea Level Pressure  
Sea Level Pressure 30.34 in    
Wind  
Wind Speed 3 mph (East)    
Max Wind Speed 7 mph    
Max Gust Speed -    
Visibility 10 miles    
Events      
Averages and records for this station are not official NWS values.
T = Trace of Precipitation, MM = Missing Value Source: NWS Daily Summary

Daily Weather History Graph

Daily Weather History Graph

Search for Another Location

Airport or City:

Trip Planner

Search our weather history database for the weather conditions in past years. The results will help you decide how hot, cold, wet, or windy it might be!

Date:

Astronomy

Dec. 21, 2012 Rise Set
Actual Time 7:24 AM CST 5:10 PM CST
Civil Twilight 6:56 AM CST 5:38 PM CST
Nautical Twilight 6:24 AM CST 6:10 PM CST
Astronomical Twilight 5:53 AM CST 6:41 PM CST
Moon 12:50 PM CST (12/21) 1:21 AM CST (12/21)
Length of Visible Light 10h 42m
Length of Day
9h 45m
Waxing Gibbous, 65% of the Moon is Illuminated
Dec 21
Waxing Gibbous
Dec 28
Full
Jan 4
Last Quarter
Jan 11
New
Jan 18
First Quarter

Hourly Weather History & Observations

Time (CST) Temp. Windchill Dew Point Humidity Pressure Visibility Wind Dir Wind Speed Gust Speed Precip Events Conditions
12:15 AM 28.4 °F 23.3 °F 19.4 °F 69% 30.35 in 10.0 mi SW 4.6 mph - N/A   Clear
12:35 AM 30.2 °F - 19.4 °F 64% 30.35 in 10.0 mi Calm Calm - N/A   Clear
1:15 AM 28.4 °F 23.3 °F 19.4 °F 69% 30.35 in 10.0 mi WSW 4.6 mph - N/A   Clear
1:35 AM 30.2 °F 25.4 °F 19.4 °F 64% 30.35 in 10.0 mi West 4.6 mph - N/A   Clear
1:55 AM 30.2 °F 24.3 °F 19.4 °F 64% 30.35 in 10.0 mi WSW 5.8 mph - N/A   Clear
2:15 AM 30.2 °F 25.4 °F 19.4 °F 64% 30.35 in 10.0 mi West 4.6 mph - N/A   Clear
2:35 AM 30.2 °F 24.3 °F 19.4 °F 64% 30.36 in 10.0 mi West 5.8 mph - N/A   Clear
2:55 AM 30.2 °F 26.7 °F 19.4 °F 64% 30.36 in 10.0 mi West 3.5 mph - N/A   Clear
3:15 AM 30.2 °F - 19.4 °F 64% 30.36 in 10.0 mi Calm Calm - N/A   Clear
3:35 AM 30.2 °F - 19.4 °F 64% 30.36 in 10.0 mi Calm Calm - N/A   Clear
3:55 AM 28.4 °F 24.6 °F 17.6 °F 64% 30.36 in 10.0 mi WSW 3.5 mph - N/A   Clear
4:15 AM 28.4 °F 24.6 °F 17.6 °F 64% 30.36 in 10.0 mi West 3.5 mph - N/A   Clear
4:35 AM 26.6 °F 22.6 °F 17.6 °F 69% 30.36 in 10.0 mi WSW 3.5 mph - N/A   Clear
4:55 AM 26.6 °F - 19.4 °F 74% 30.36 in 10.0 mi Calm Calm - N/A   Clear
5:15 AM 26.6 °F - 19.4 °F 74% 30.37 in 10.0 mi Calm Calm - N/A   Clear
5:35 AM 26.6 °F - 21.2 °F 80% 30.37 in 10.0 mi Calm Calm - N/A   Clear
5:55 AM 26.6 °F - 19.4 °F 74% 30.37 in 10.0 mi Calm Calm - N/A   Clear
6:15 AM 24.8 °F 20.5 °F 19.4 °F 80% 30.37 in 10.0 mi SSW 3.5 mph - N/A   Clear
6:35 AM 24.8 °F - 19.4 °F 80% 30.38 in 10.0 mi Calm Calm - N/A   Clear
6:55 AM 26.6 °F - 21.2 °F 80% 30.38 in 10.0 mi Calm Calm - N/A   Clear
7:15 AM 26.6 °F 22.6 °F 19.4 °F 74% 30.38 in 10.0 mi SW 3.5 mph - N/A   Clear
7:35 AM 26.6 °F - 19.4 °F 74% 30.39 in 10.0 mi Calm Calm - N/A   Clear
7:55 AM 26.6 °F - 21.2 °F 80% 30.39 in 10.0 mi Calm Calm - N/A   Clear
8:15 AM 26.6 °F - 21.2 °F 80% 30.39 in 10.0 mi Calm Calm - N/A   Clear
8:35 AM 30.2 °F - 23.0 °F 75% 30.40 in 10.0 mi Calm Calm - N/A   Clear
8:55 AM 32.0 °F - 23.0 °F 69% 30.41 in 10.0 mi Calm Calm - N/A   Clear
9:15 AM 32.0 °F - 21.2 °F 64% 30.41 in 10.0 mi Calm Calm - N/A   Clear
9:35 AM 33.8 °F - 23.0 °F 65% 30.42 in 10.0 mi Calm Calm - N/A   Clear
9:55 AM 35.6 °F 32.8 °F 21.2 °F 56% 30.42 in 10.0 mi WSW 3.5 mph - N/A   Clear
10:15 AM 37.4 °F - 21.2 °F 52% 30.42 in 10.0 mi Calm Calm - N/A   Clear
10:35 AM 41.0 °F 39.0 °F 19.4 °F 42% 30.42 in 10.0 mi West 3.5 mph - N/A   Clear
10:55 AM 42.8 °F - 21.2 °F 42% 30.42 in 10.0 mi Calm Calm - N/A   Clear
11:15 AM 44.6 °F - 19.4 °F 37% 30.41 in 10.0 mi Calm Calm - N/A   Clear
11:35 AM 46.4 °F - 15.8 °F 29% 30.40 in 10.0 mi Calm Calm - N/A   Clear
11:55 AM 46.4 °F 45.2 °F 15.8 °F 29% 30.38 in 10.0 mi WSW 3.5 mph - N/A   Clear
12:15 PM 48.2 °F - 17.6 °F 30% 30.37 in 10.0 mi West 4.6 mph - N/A   Clear
12:35 PM 50.0 °F - 17.6 °F 28% 30.36 in 10.0 mi SSW 4.6 mph - N/A   Clear
12:55 PM 50.0 °F - 17.6 °F 28% 30.35 in 10.0 mi Calm Calm - N/A   Clear
1:15 PM 51.8 °F - 15.8 °F 24% 30.34 in 10.0 mi Calm Calm - N/A   Clear
1:35 PM 51.8 °F - 15.8 °F 24% 30.33 in 10.0 mi Calm Calm - N/A   Clear
1:55 PM 53.6 °F - 17.6 °F 24% 30.32 in 10.0 mi East 3.5 mph - N/A   Clear
2:15 PM 53.6 °F - 15.8 °F 22% 30.30 in 10.0 mi SE 3.5 mph - N/A   Clear
2:35 PM 55.4 °F - 15.8 °F 21% 30.30 in 10.0 mi ESE 4.6 mph - N/A   Clear
2:55 PM 55.4 °F - 14.0 °F 20% 30.29 in 10.0 mi Calm Calm - N/A   Clear
3:15 PM 57.2 °F - 15.8 °F 20% 30.28 in 10.0 mi SSE 4.6 mph - N/A   Clear
3:35 PM 55.4 °F - 15.8 °F 21% 30.28 in 10.0 mi SE 5.8 mph - N/A   Clear
4:15 PM 55.4 °F - 19.4 °F 25% 30.27 in 10.0 mi East 4.6 mph - N/A   Clear
4:35 PM 53.6 °F - 19.4 °F 26% 30.27 in 10.0 mi East 5.8 mph - N/A   Clear
4:55 PM 51.8 °F - 19.4 °F 28% 30.27 in 10.0 mi East 5.8 mph - N/A   Clear
5:15 PM 50.0 °F - 21.2 °F 32% 30.27 in 10.0 mi ENE 4.6 mph - N/A   Clear
5:35 PM 50.0 °F - 19.4 °F 30% 30.27 in 10.0 mi ENE 5.8 mph - N/A   Clear
5:55 PM 48.2 °F - 19.4 °F 32% 30.27 in 10.0 mi ENE 4.6 mph - N/A   Clear
6:15 PM 46.4 °F 43.5 °F 19.4 °F 34% 30.28 in 10.0 mi East 5.8 mph - N/A   Clear
6:35 PM 46.4 °F 43.5 °F 19.4 °F 34% 30.28 in 10.0 mi ENE 5.8 mph - N/A   Clear
6:55 PM 44.6 °F 42.2 °F 19.4 °F 37% 30.29 in 10.0 mi ENE 4.6 mph - N/A   Clear
7:15 PM 44.6 °F 42.2 °F 19.4 °F 37% 30.29 in 10.0 mi ENE 4.6 mph - N/A   Clear
7:35 PM 42.8 °F 39.3 °F 21.2 °F 42% 30.29 in 10.0 mi ENE 5.8 mph - N/A   Clear
8:15 PM 42.8 °F 39.3 °F 21.2 °F 42% 30.29 in 10.0 mi ENE 5.8 mph - N/A   Clear
8:35 PM 41.0 °F 36.4 °F 21.2 °F 45% 30.29 in 10.0 mi ENE 6.9 mph - N/A   Clear
8:55 PM 41.0 °F 37.1 °F 21.2 °F 45% 30.29 in 10.0 mi ENE 5.8 mph - N/A   Clear
9:15 PM 41.0 °F 37.1 °F 21.2 °F 45% 30.29 in 10.0 mi NE 5.8 mph - N/A   Clear
9:35 PM 41.0 °F 36.4 °F 23.0 °F 49% 30.29 in 10.0 mi ENE 6.9 mph - N/A   Clear
9:55 PM 37.4 °F 32.8 °F 23.0 °F 56% 30.29 in 10.0 mi ENE 5.8 mph - N/A   Clear
10:15 PM 37.4 °F 33.8 °F 23.0 °F 56% 30.29 in 10.0 mi ENE 4.6 mph - N/A   Clear
10:35 PM 37.4 °F 33.8 °F 23.0 °F 56% 30.29 in 10.0 mi ENE 4.6 mph - N/A   Clear
10:55 PM 37.4 °F 33.8 °F 23.0 °F 56% 30.29 in 10.0 mi ENE 4.6 mph - N/A   Clear
11:15 PM 37.4 °F 33.8 °F 23.0 °F 56% 30.29 in 10.0 mi ENE 4.6 mph - N/A   Clear
11:35 PM 37.4 °F 33.8 °F 23.0 °F 56% 30.29 in 10.0 mi ENE 4.6 mph - N/A   Clear
11:55 PM 37.4 °F 32.8 °F 23.0 °F 56% 30.29 in 10.0 mi ENE 5.8 mph - N/A   Clear